Starlink 32391

operational
NORAD ID: 61855 Int'l Des: 2024-202 Owner: SPXS Country: US Constellation: starlink
LEOCIRCULAR

关于 Starlink 32391

正在加载描述...

实时位置

正在加载3D地球...

即将过境

高度历史

Altitude vs Time

uPlot chart will show altitude changes over time

两行轨道根数

1 61855U 24202L 25259.06859737 .00002291 00000-0 92709-4 0 9998
2 61855 43.0063 143.9799 0001259 265.3358 94.7350 15.27592097 48629
Epoch: Sep 16, 2025 • Age: 9 hours

当前状态

高度 494.1 km
速度 7.62 km/s
星下点 -39.66°S, 130.3°W
发射日期 Nov 7, 2024
运行时间 0.8 years
类型 internet

技术详情

分类 Payload
质量 730.00 kg
干质量 700.00 kg
总质量 730.00 kg
长度 0.30 m
直径 4.10 m
跨度 29.00 m
形状 Box + pan
制造商 SPXS
平台类型 Starlink V2M
阶段状态 In Orbit
所有者/国家 SPXS/US

大型星座

Loading constellations...